Weather History for Pellston, MI

Change the Weather History Date:

Saturday, February 9, 2013

  Actual Average Record
Temperature  
Mean Temperature 6 °F -  
Max Temperature 26 °F 26 °F 51 °F (1966)
Min Temperature -14 °F 2 °F -30 °F (1951)
Degree Days  
Heating Degree Days 59    
Moisture  
Dew Point -2 °F    
Average Humidity 71    
Maximum Humidity 87    
Minimum Humidity 51    
Precipitation  
Precipitation 0.00 in - - ()
Sea Level Pressure  
Sea Level Pressure 30.37 in    
Wind  
Wind Speed 2 mph (SE)    
Max Wind Speed 7 mph    
Max Gust Speed -    
Visibility 10 miles    
Events      
Averages and records for this station are not official NWS values.
T = Trace of Precipitation, MM = Missing Value Source: NWS Daily Summary

Daily Weather History Graph

Daily Weather History Graph

Search for Another Location

Airport:

Trip Planner

Search our weather history database for the weather conditions in past years. The results will help you decide how hot, cold, wet, or windy it might be!

Date:

Astronomy

Feb. 09, 2013 Rise Set
Actual Time 7:49 AM EST 5:57 PM EST
Civil Twilight 7:18 AM EST 6:28 PM EST
Nautical Twilight 6:43 AM EST 7:03 PM EST
Astronomical Twilight 6:09 AM EST 7:38 PM EST
Moon 7:00 AM EST (2/9) 5:41 PM EST (2/9)
Length of Visible Light 11h 10m
Length of Day
10h 08m
Waning Crescent, 0% of the Moon is Illuminated
Feb 9
Waning Crescent
Feb 10
New
Feb 17
First Quarter
Feb 25
Full
Mar 4
Last Quarter

Hourly Weather History & Observations

Time (EST) Temp. Windchill Dew Point Humidity Pressure Visibility Wind Dir Wind Speed Gust Speed Precip Events Conditions
12:54 AM -7.1 °F - -11.9 °F 79% 30.43 in 10.0 mi Calm Calm - N/A   Clear
1:54 AM -8.0 °F -16.9 °F -14.1 °F 75% 30.44 in 10.0 mi NNW 3.5 mph - N/A   Clear
2:54 AM -8.0 °F - -15.0 °F 71% 30.45 in 10.0 mi Calm Calm - N/A   Clear
3:54 AM -11.0 °F - -18.9 °F 68% 30.44 in 10.0 mi Calm Calm - N/A   Clear
4:54 AM -11.0 °F - -18.9 °F 68% 30.45 in 10.0 mi Calm Calm - N/A   Clear
5:54 AM -11.0 °F - -18.9 °F 68% 30.45 in 10.0 mi Calm Calm - N/A   Clear
7:30 AM -14.8 °F - -22.0 °F 70% 30.39 in 10.0 mi Calm Calm - N/A   Partly Cloudy
7:54 AM -13.0 °F - -20.9 °F 68% 30.46 in 10.0 mi Calm Calm - N/A   Clear
8:54 AM -8.0 °F - -13.0 °F 79% 30.47 in 10.0 mi Calm Calm - N/A   Clear
9:54 AM 1.0 °F - -5.1 °F 75% 30.45 in 8.0 mi Calm Calm - N/A   Clear
10:54 AM 10.0 °F 1.8 °F 3.9 °F 76% 30.43 in 10.0 mi SE 4.6 mph - N/A   Clear
11:54 AM 16.0 °F 7.4 °F 9.0 °F 74% 30.42 in 10.0 mi SE 5.8 mph - N/A   Clear
12:54 PM 19.9 °F 11.1 °F 10.9 °F 68% 30.38 in 10.0 mi ESE 6.9 mph - N/A   Clear
1:54 PM 21.9 °F 13.4 °F 10.9 °F 63% 30.36 in 10.0 mi SE 6.9 mph - N/A   Clear
2:54 PM 24.1 °F 18.2 °F 12.9 °F 62% 30.34 in 10.0 mi ESE 4.6 mph - N/A   Clear
3:54 PM 26.1 °F - 10.9 °F 53% 30.32 in 10.0 mi Calm Calm - N/A   Clear
4:54 PM 23.0 °F 17.0 °F 9.0 °F 55% 30.31 in 10.0 mi SE 4.6 mph - N/A   Clear
5:54 PM 26.1 °F 20.5 °F 10.0 °F 51% 30.28 in 10.0 mi SSE 4.6 mph - N/A   Clear
6:54 PM 18.0 °F - 9.0 °F 68% 30.29 in 10.0 mi Calm Calm - N/A   Clear
7:54 PM 10.9 °F - 6.1 °F 81% 30.28 in 10.0 mi Calm Calm - N/A   Clear
8:54 PM 7.0 °F -1.7 °F 3.9 °F 87% 30.26 in 10.0 mi SSE 4.6 mph - N/A   Clear
9:54 PM 9.0 °F 2.4 °F 5.0 °F 84% 30.26 in 10.0 mi SE 3.5 mph - N/A   Mostly Cloudy
10:54 PM 9.0 °F 2.4 °F 3.9 °F 80% 30.24 in 10.0 mi SSE 3.5 mph - N/A   Overcast
11:54 PM 14.0 °F 8.2 °F 9.0 °F 80% 30.23 in 10.0 mi SE 3.5 mph - N/A   Overcast